GW5487 Weather Reports


time (UTC)temp
F
wind
direction
speed
knots
gust
knots
rain 1hr
in
rain 24hr
in
rain mn
in
humidity
%
barometer
mb
20260504004522 52 200 0.0 0.0 0.00 0.00 0.00 49 1012.2
20260504004019 51 200 0.0 0.0 0.00 0.00 0.00 49 1012.1
20260504003514 52 210 0.0 0.0 0.00 0.00 0.00 50 1012.0
20260504003012 53 203 0.0 0.0 0.00 0.00 0.00 48 1012.2
20260504002508 53 196 0.0 0.9 0.00 0.00 0.00 45 1012.1
20260504002006 53 202 0.0 0.0 0.00 0.00 0.00 46 1011.9
20260504001503 53 202 0.0 0.0 0.00 0.00 0.00 45 1012.0
20260504000959 54 214 0.0 0.0 0.00 0.00 0.00 44 1011.8
20260504000456 55 215 0.0 0.0 0.00 0.00 0.00 42 1011.8
20260503235953 55 221 0.0 0.0 0.00 0.00 0.00 42 1011.6
20260503235451 56 221 0.0 0.0 0.00 0.00 0.00 42 1011.6
20260503234948 56 221 0.0 0.0 0.00 0.00 0.00 40 1011.6
20260503234446 57 239 0.9 1.7 0.00 0.00 0.00 38 1011.5
20260503233944 58 210 0.0 0.0 0.00 0.00 0.00 38 1011.5
20260503233440 58 243 1.7 1.7 0.00 0.00 0.00 36 1011.4
20260503232936 59 231 1.7 1.7 0.00 0.00 0.00 35 1011.2
20260503232433 59 230 1.7 1.7 0.00 0.00 0.00 36 1011.4
20260503231932 59 308 4.3 7.8 0.00 0.00 0.00 35 1011.4
20260503231429 59 289 7.0 8.7 0.00 0.00 0.00 34 1011.5
20260503230925 59 291 2.6 5.2 0.00 0.00 0.00 34 1011.5
20260503230421 59 291 5.2 6.1 0.00 0.00 0.00 34 1011.2
20260503225919 59 265 3.5 4.3 0.00 0.00 0.00 34 1011.1
20260503225415 60 232 2.6 2.6 0.00 0.00 0.00 34 1011.3
20260503224911 59 291 4.3 6.1 0.00 0.00 0.00 33 1011.2
20260503224409 60 261 4.3 5.2 0.00 0.00 0.00 33 1011.2
20260503223906 60 291 5.2 7.8 0.00 0.00 0.00 33 1011.2
20260503223404 60 290 6.1 7.8 0.00 0.00 0.00 32 1011.2
20260503222859 60 275 1.7 1.7 0.00 0.00 0.00 33 1011.0
20260503222358 60 293 5.2 6.1 0.00 0.00 0.00 33 1011.0
20260503221856 60 301 7.8 8.7 0.00 0.00 0.00 32 1011.2
20260503221355 60 309 9.6 13.0 0.00 0.00 0.00 32 1011.3
20260503220850 59 320 7.0 11.3 0.00 0.00 0.00 33 1011.2
20260503220347 59 299 7.0 8.7 0.00 0.00 0.00 33 1011.2
20260503215844 60 282 8.7 13.9 0.00 0.00 0.00 33 1011.2
20260503215341 59 299 9.6 13.9 0.00 0.00 0.00 33 1010.9
20260503214839 59 334 6.1 7.8 0.00 0.00 0.00 33 1010.9
20260503214336 60 288 7.0 9.6 0.00 0.00 0.00 33 1011.1
20260503213834 59 324 9.6 13.0 0.00 0.00 0.00 33 1010.9
20260503213331 59 287 4.3 6.1 0.00 0.00 0.00 33 1010.7
20260503212828 59 304 9.6 13.9 0.00 0.00 0.00 33 1011.1
20260503212326 60 260 8.7 11.3 0.00 0.00 0.00 33 1011.1
20260503211823 59 281 11.3 14.8 0.00 0.00 0.00 33 1010.9
20260503211319 59 304 7.0 11.3 0.00 0.00 0.00 33 1010.9
20260503210819 59 325 12.2 13.0 0.00 0.00 0.00 33 1011.1
20260503210317 59 337 7.8 12.2 0.00 0.00 0.00 33 1010.6
20260503205812 59 292 10.4 13.9 0.00 0.00 0.00 34 1010.7
20260503205309 59 325 7.0 8.7 0.00 0.00 0.00 34 1011.0
20260503204805 59 283 8.7 12.2 0.00 0.00 0.00 34 1011.0
20260503204303 59 290 10.4 12.2 0.00 0.00 0.00 33 1010.8
20260503203800 59 212 7.8 11.3 0.00 0.00 0.00 34 1010.9
20260503203257 59 303 9.6 12.2 0.00 0.00 0.00 33 1010.8
20260503202748 60 233 6.1 7.0 0.00 0.00 0.00 34 1010.7
20260503202246 58 238 4.3 5.2 0.00 0.00 0.00 35 1010.5
20260503201743 58 289 7.0 9.6 0.00 0.00 0.00 34 1010.7
20260503201241 58 241 7.8 9.6 0.00 0.00 0.00 34 1010.9
20260503200737 58 298 11.3 12.2 0.00 0.00 0.00 35 1011.0
20260503200233 58 265 7.8 11.3 0.00 0.00 0.00 35 1011.1
20260503195730 57 318 7.0 9.6 0.00 0.00 0.00 35 1010.8
20260503195227 58 276 6.1 7.0 0.00 0.00 0.00 36 1011.0
20260503194725 57 258 11.3 14.8 0.00 0.00 0.00 36 1011.1
20260503194220 59 281 5.2 7.0 0.00 0.00 0.00 36 1011.0
20260503193717 59 288 6.1 8.7 0.00 0.00 0.00 36 1011.2
20260503193213 58 259 4.3 6.1 0.00 0.00 0.00 37 1011.2
20260503192709 57 275 4.3 6.1 0.00 0.00 0.00 38 1011.2
20260503192204 58 249 7.8 8.7 0.00 0.00 0.00 37 1011.3
20260503191701 57 284 9.6 13.0 0.00 0.00 0.00 37 1011.3
20260503191158 57 247 4.3 5.2 0.00 0.00 0.00 38 1011.5
20260503190655 57 297 5.2 7.8 0.00 0.00 0.00 39 1011.1
20260503190152 57 310 4.3 6.1 0.00 0.00 0.00 40 1011.2
20260503185649 56 289 4.3 6.1 0.00 0.00 0.00 40 1011.4
20260503185144 56 302 7.8 9.6 0.00 0.00 0.00 39 1011.5
20260503184639 56 273 9.6 12.2 0.00 0.00 0.00 39 1011.7
20260503184136 57 301 11.3 12.2 0.00 0.00 0.00 39 1011.7
20260503183632 57 292 12.2 14.8 0.00 0.00 0.00 38 1011.9
20260503183129 56 289 4.3 6.1 0.00 0.00 0.00 39 1011.7
20260503182628 56 281 6.1 7.0 0.00 0.00 0.00 40 1011.7
20260503182126 56 289 8.7 11.3 0.00 0.00 0.00 38 1011.8
20260503181622 56 297 7.8 8.7 0.00 0.00 0.00 40 1012.0
20260503181119 55 260 3.5 4.3 0.00 0.00 0.00 41 1011.9
20260503180616 55 303 7.8 8.7 0.00 0.00 0.00 40 1011.9
20260503180114 54 231 7.8 12.2 0.00 0.00 0.00 41 1011.7
20260503175610 54 299 6.1 7.0 0.00 0.00 0.00 41 1011.6
20260503175108 55 262 6.1 7.0 0.00 0.00 0.00 41 1011.9
20260503174605 54 281 9.6 13.0 0.00 0.00 0.00 40 1011.7
20260503174102 54 317 9.6 12.2 0.00 0.00 0.00 41 1011.7
20260503173556 54 280 3.5 7.0 0.00 0.00 0.00 41 1011.9
20260503173053 54 282 13.9 19.1 0.00 0.00 0.00 40 1011.9
20260503172550 54 265 6.1 8.7 0.00 0.00 0.00 41 1011.9
20260503172047 54 296 6.1 7.8 0.00 0.00 0.00 43 1011.8
20260503171544 54 331 4.3 6.1 0.00 0.00 0.00 41 1011.8
20260503171041 55 286 6.1 8.7 0.00 0.00 0.00 40 1011.8
20260503170537 53 296 8.7 9.6 0.00 0.00 0.00 40 1011.7
20260503150931 52 342 6.1 9.6 0.00 0.00 0.00 46 1012.4
20260503150427 51 297 3.5 6.1 0.00 0.00 0.00 46 1012.2
20260503131320 48 322 7.0 7.8 0.00 0.00 0.00 54 1012.1
20260503130817 50 255 11.3 19.1 0.00 0.00 0.00 53 1012.0
20260503130314 49 265 4.3 5.2 0.00 0.00 0.00 55 1012.1
20260503110708 46 281 3.5 4.3 0.00 0.00 0.00 58 1011.2
20260503110205 46 304 4.3 5.2 0.00 0.00 0.00 59 1011.0
20260503100131 47 327 4.3 5.2 0.00 0.00 0.00 56 1009.9
20260503081521 48 330 3.5 5.2 0.00 0.00 0.00 54 1009.2
20260503081018 48 230 1.7 1.7 0.00 0.00 0.00 54 1009.0
20260503080514 48 324 0.9 2.6 0.00 0.00 0.00 56 1009.3
20260503072454 49 249 1.7 2.6 0.00 0.00 0.00 55 1009.4
20260503071951 49 266 0.9 1.7 0.00 0.00 0.00 55 1009.5
20260503071448 49 300 1.7 1.7 0.00 0.00 0.00 55 1009.4
20260503070944 49 219 1.7 1.7 0.00 0.00 0.00 54 1009.4
20260503070441 50 239 0.0 0.9 0.00 0.00 0.00 54 1009.3
20260503054900 51 294 1.7 1.7 0.00 0.00 0.00 51 1009.6
20260503054355 51 261 2.6 2.6 0.00 0.00 0.00 53 1009.5
20260503053854 51 262 2.6 2.6 0.00 0.00 0.00 53 1009.8
20260503053352 51 286 2.6 2.6 0.00 0.00 0.00 53 1009.8
20260503052848 51 239 3.5 4.3 0.00 0.00 0.00 53 1009.9
20260503052345 51 246 2.6 2.6 0.00 0.00 0.00 53 1009.5
20260503051841 51 297 2.6 2.6 0.00 0.00 0.00 54 1009.7
20260503051337 51 200 2.6 2.6 0.00 0.00 0.00 53 1009.7
20260503050835 51 220 1.7 1.7 0.00 0.00 0.00 54 1010.0
20260503050331 51 289 2.6 2.6 0.00 0.00 0.00 55 1009.9
20260503045828 51 238 3.5 4.3 0.00 0.00 0.00 54 1009.9
20260503045326 51 215 1.7 1.7 0.00 0.00 0.00 55 1010.0
20260503044822 51 236 1.7 1.7 0.00 0.00 0.00 56 1009.9
20260503044319 51 237 2.6 4.3 0.00 0.00 0.00 55 1010.0
20260503043816 51 301 2.6 5.2 0.00 0.00 0.00 56 1010.4
20260503043313 51 231 0.9 0.9 0.00 0.00 0.00 55 1010.2
20260503042809 51 343 1.7 2.6 0.00 0.00 0.00 56 1010.3
20260503042306 51 233 0.9 1.7 0.00 0.00 0.00 56 1010.5
20260503041802 51 292 2.6 2.6 0.00 0.00 0.00 56 1010.4
20260503041300 51 260 3.5 4.3 0.00 0.00 0.00 57 1010.3
20260503040757 51 215 2.6 4.3 0.00 0.00 0.00 56 1010.3
20260503040255 51 250 2.6 4.3 0.00 0.00 0.00 56 1010.5
20260503035751 52 238 1.7 2.6 0.00 0.00 0.00 57 1010.3
20260503035249 52 297 2.6 4.3 0.00 0.00 0.00 57 1010.4
20260503034746 52 259 1.7 1.7 0.00 0.00 0.00 57 1010.2
20260503034243 52 328 2.6 4.3 0.00 0.00 0.00 56 1010.0
20260503033740 52 288 4.3 5.2 0.00 0.00 0.00 56 1010.3
20260503033238 52 281 2.6 2.6 0.00 0.00 0.00 57 1010.4
20260503032736 52 291 3.5 5.2 0.00 0.00 0.00 57 1010.1
20260503032234 52 231 1.7 2.6 0.00 0.00 0.00 58 1010.1
20260503031731 52 282 3.5 4.3 0.00 0.00 0.00 59 1010.3
20260503031229 52 327 2.6 4.3 0.00 0.00 0.00 59 1010.3
20260503030725 52 260 3.5 4.3 0.00 0.00 0.00 60 1010.4
20260503030221 52 219 0.9 1.7 0.00 0.00 0.00 62 1010.1
20260503025718 52 299 1.7 2.6 0.00 0.00 0.00 63 1010.4
20260503025216 51 281 1.7 2.6 0.00 0.00 0.00 65 1009.9
20260503024712 51 208 2.6 2.6 0.00 0.00 0.00 66 1010.0
20260503024210 51 281 1.7 1.7 0.00 0.00 0.00 68 1010.1
20260503023707 51 288 1.7 2.6 0.00 0.00 0.00 71 1010.0
20260503023203 51 295 2.6 2.6 0.00 0.00 0.00 76 1010.1
20260503022659 51 228 0.9 1.7 0.00 0.00 0.00 79 1010.0
20260503022159 50 217 0.9 0.9 0.00 0.00 0.00 82 1010.5
20260503021656 50 214 0.0 0.0 0.00 0.00 0.00 84 1010.6
20260503021153 50 216 0.0 0.9 0.00 0.00 0.00 85 1010.6
20260503020650 50 214 0.0 0.0 0.00 0.00 0.00 85 1010.2
20260503020147 50 212 0.0 0.0 0.00 0.00 0.00 85 1010.3
20260503015644 50 242 0.9 0.9 0.00 0.00 0.00 86 1010.3
20260503015141 50 224 0.0 0.0 0.00 0.00 0.00 86 1010.3
20260503014637 50 224 0.0 0.0 0.00 0.00 0.00 86 1010.5
20260503014135 50 224 0.0 0.0 0.00 0.00 0.00 86 1010.6
20260503013632 50 219 0.0 0.9 0.00 0.00 0.00 86 1010.6
20260503013130 50 207 0.0 0.0 0.00 0.00 0.00 86 1010.6
20260503012627 50 241 0.9 1.7 0.00 0.00 0.00 86 1010.4
20260503012123 50 224 0.0 0.0 0.00 0.00 0.00 86 1010.5
20260503011620 50 209 0.0 0.9 0.00 0.00 0.00 86 1010.5
20260503011117 51 217 0.0 0.0 0.00 0.00 0.00 85 1010.5
20260503010613 51 216 0.0 0.0 0.00 0.00 0.00 85 1010.5
20260503010111 51 216 0.0 0.0 0.00 0.00 0.00 85 1010.2
20260503005608 51 216 0.0 0.0 0.00 0.00 0.00 84 1010.4
20260503005105 51 217 0.0 0.0 0.00 0.00 0.00 84 1010.1